Voltar ao catálogo

STARLINK-31899

AtivoComunicaçõesVLEO
NORAD 59850·PAYLOAD·🇺🇸 United States

Lançado May 23, 2024 de Cape Canaveral Space Force Station

Loading…

Próximas Passagens (próximas 24 horas)

TLE

AtualizadoSource: CelesTrak SupGP

Época: Sep 14, 2026, 22:21 UTC

1 59850C 24097R   26257.93173611  .00019080  00000+0  69117-3 0  2573
2 59850  43.0003 285.5559 0001571 265.9750 311.7356 15.27563959    15

Acompanhe STARLINK-31899 em tempo real com AllMySat

Download on the App Store